{"data":{"norad_id":64237,"epoch":"2026-09-20T15:34:50.518848Z","epoch_age_seconds":124666,"freshness":"FRESH","line1":"1 64237U 25119E   26263.64919582  .00036460  00000+0  28606-3 0  9996","line2":"2 64237  43.0009 114.2447 0002184 268.5375  91.5242 15.70866404 75909","mean_motion":15.70866404,"eccentricity":0.0002184,"inclination_deg":43.0009,"raan_deg":114.2447,"arg_perigee_deg":268.5375,"mean_anomaly_deg":91.5242,"bstar":0.00028606,"rev_number":7590,"period_min":91.669157627487,"perigee_km":354.9487678917,"apogee_km":357.89042221242,"semimajor_km":6734.5565950521,"source":"CELESTRAK","updated_at":"2026-09-21T09:00:35.276819Z"}}